AirNav   Air Wisconsin Up To $57,000 Bonus
 
 539 users online  

MD42 Keymar Airpark
Keymar, Maryland, USA

GOING TO KEYMAR?


FAA INFORMATION EFFECTIVE 16 JUNE 2022

Location

FAA Identifier: MD42
Lat/Long: 39-37-10.3580N 077-13-38.9400W
39-37.172633N 077-13.649000W
39.6195439,-77.2274833
(estimated)
Elevation: 437 ft. / 133.2 m (surveyed)
Variation: 10W (1985)
From city: 2 miles NE of KEYMAR, MD
Time zone: UTC -4 (UTC -5 during Standard Time)
Zip code: 21757

Airport Operations

Airport use: Private use. Permission required prior to landing
Activation date: 08/1971
Control tower: no
ARTCC: WASHINGTON CENTER
FSS: LEESBURG FLIGHT SERVICE STATION
Attendance: UNATNDD
Wind indicator: yes
Segmented circle: no
Lights: FOR LIRL CALL 410-756-1724.

Airport Communications

WX AWOS-3 at DMW (10 nm E): 121.25 (410-876-1281)
WX AWOS-3 at FDK (14 nm SW): PHONE 301-600-1457

Airport Services

Airframe service: NONE
Powerplant service: NONE

Runway Information

Runway 5/23

Dimensions: 1950 x 100 ft. / 594 x 30 m
Surface: turf
Runway edge lights: low intensity
RUNWAY 5  RUNWAY 23
Traffic pattern: rightleft
Obstructions: none20 ft. bldg, 200 ft. from runway

Airport Ownership and Management from official FAA records

Ownership: Privately-owned
Owner: DENNIS & BRENDA YOUNG
1585 FRANCIS SCOTT KEY HGWY
KEYMAR, MD 21757
Phone (410) 259-4250
Manager: DENNIS & BRENDA YOUNG
1585 FRANCIS SCOTT KEY HWY
KEYMAR, MD 21757
Phone 410-259-4250
EMERGENCY.

Airport Operational Statistics

Aircraft based on the field: 13
Single engine airplanes: 10
Ultralights: 3
    

Additional Remarks

LIGHT SPORT AIRCRAFT AND ULTRALIGHT VEHICLES ON & INVOF ARPT.
FOR CD CTC POTOMAC APCH AT 866-709-4993.

Instrument Procedures

There are no published instrument procedures at MD42.

Some nearby airports with instrument procedures:

KDMW - Carroll County Regional Airport/Jack B Poage Field (10 nm E)
2W2 - Clearview Airpark (13 nm SE)
W05 - Gettysburg Regional Airport (13 nm N)
KFDK - Frederick Municipal Airport (14 nm SW)
W50 - Davis Airport (23 nm S)
 
Loc | Ops | Rwys | IFR | FBO | Links
Com | Nav | Svcs | Stats | Notes
Area around MD42 (Keymar Airpark)
 
Road maps at: MapQuest Bing Google
 
Aerial photo
No photo
 
Sectional chart

 
Airport distance calculator
Flying to Keymar Airpark? Find the distance to fly.

From to MD42

Sunrise and sunset
Times for 28-Jun-2022
 Local
(UTC-4)
 Zulu
(UTC)
Morning civil twilight05:1209:12
Sunrise05:4509:45
Sunset20:4000:40
Evening civil twilight21:1201:12

Current date and time
Zulu (UTC)  28-Jun-2022 07:29:26
Local (UTC-4)  28-Jun-2022 03:29:26
 
METAR
KDMW 
10nm E 
280655Z AUTO 00000KT 10SM CLR 18/08 A3013 RMK AO2
KFDK 
14nm SW 
280700Z AUTO 00000KT 10SM CLR 17/10 A3013 RMK AO2
TAF
KBWI 
37nm SE 
280542Z 2806/2912 33007KT P6SM SKC FM281500 33006KT P6SM FEW050 SCT250 FM290100 00000KT P6SM FEW050 SCT250
KMRB 
37nm W 
280542Z 2806/2906 34006KT P6SM SKC FM281500 33007KT P6SM FEW050 SCT250 FM282100 09003KT P6SM FEW045 SCT250 FM290100 00000KT P6SM FEW050 SCT250
KMDT 
41nm NE 
280535Z 2806/2906 32008KT P6SM SCT070 FM280700 32007KT P6SM FEW070 FM281400 31008G15KT P6SM FEW050 FM282200 30007KT P6SM SKC
KMTN 
42nm SE 
280542Z 2806/2906 30011G15KT P6SM SKC FM281500 33006KT P6SM FEW050 SCT250 FM290200 00000KT P6SM FEW050 SCT250 AMD NOT SKED
KIAD 
42nm S 
280542Z 2806/2912 31008KT P6SM SKC FM281500 34007KT P6SM FEW050 SCT250 FM290200 00000KT P6SM FEW050 SCT250
NOTAMs
Click for the latest NOTAMs
NOTAMs are issued by the DoD/FAA and will open in a separate window not controlled by AirNav.

 

 
 

Would you like to see your business listed on this page?

 If your business provides an interesting product or service to pilots, flight crews, aircraft, or users of the Keymar Airpark, you should consider listing it here.  To start the listing process, click on the button below
 
Add a business
 

Other Pages about Keymar Airpark

Update a link
 
Copyright © AirNav, LLC. All rights reserved. Privacy Policy  Contact